Location: Newark
(48.8833°N, 0.9236°W)
Time: 20:49:22
(UTC+00:00)

Transit 2A Rocket - Visible Passes

Search period start: 11 November 2019 00:00
Search period end: 21 November 2019 00:00
Orbit: 594 x 909 km, 66.7° (Epoch: 10 November)

Date Brightness Start Highest point End Pass type
(mag) Time Alt. Az. Time Alt. Az. Time Alt. Az.
12 Nov 6.8 06:06:05 10° N 06:09:04 18° NNE 06:12:05 10° ENE visible
13 Nov 7.0 05:24:01 10° N 05:26:08 13° NNE 05:28:14 10° NE visible
14 Nov 7.2 04:42:35 10° NNE 04:43:05 10° NNE 04:43:35 10° NNE visible
14 Nov 6.0 06:23:04 10° NNW 06:26:59 33° NE 06:31:00 10° ESE visible
15 Nov 6.5 05:40:46 10° NNW 05:44:13 22° NE 05:47:42 10° E visible
16 Nov 6.9 04:58:48 11° N 05:01:20 16° NNE 05:04:04 10° ENE visible
17 Nov 7.1 04:17:34 12° NNE 04:18:21 12° NNE 04:20:04 10° NE visible
17 Nov 5.5 05:57:51 10° NNW 06:02:01 44° NE 06:06:17 10° ESE visible
18 Nov 6.2 05:16:16 14° NNW 05:19:19 28° NE 05:23:10 10° ESE visible
19 Nov 6.6 04:35:05 17° N 04:36:30 20° NE 04:39:46 10° E visible
19 Nov 4.5 06:15:11 10° NW 06:19:32 80° WSW 06:24:03 10° SSE visible
20 Nov 7.2 03:53:57 14° NE 03:53:57 14° NE 03:56:01 10° ENE visible
20 Nov 4.9 05:33:53 18° NNW 05:36:59 61° NE 05:41:27 10° SE visible
